Flag for Saint Kitts and Nevis Weather past 2 weeks in Charlestown, Saint Kitts and Nevis

Now
77 °F

Scattered clouds.


Feels Like: 78 °F
Forecast: 76 / 80 °F
Wind: 14 mph from East

Location: Golden Rock


UV Index: 10 (Very high)

Visibility: N/A


Pressure: 30.04 "Hg

Humidity: 83%

Dew point: 72 °F

Location of CharlestownLocation

Historic Weather in Charlestown

°F

Charlestown temperature yesterday

Maximum temperature yesterday: 84 °F (at 12:00 PM)
Minimum temperature yesterday: 75 °F (at 6:00 AM)
Average temperature yesterday: 80 °F

Past Weeks' High & Low Weather Summary

 TemperatureHumidityPressure
High84 °F (Apr 4, 11:00 AM)100% (Apr 5, 10:00 AM)30.12 "Hg (Apr 5, 10:00 AM)
Low72 °F (Apr 5, 9:00 AM)55% (Apr 10, 2:00 PM)29.89 "Hg (Apr 15, 3:00 PM)
Average79 °F75%30.03 "Hg
* Reported Apr 4 6:00 AM — Apr 19 6:00 AM, Charlestown, Weather by CustomWeather, © 2014

Note: Actual official high and low records may vary slightly from our data, if they occured in-between our weather recording intervals... More about our weather records

Advertising

Historic Weather Conditions — Data for Previous 24 hours

 ConditionsComfort  
Time TempWeatherWind HumidityBarometerVisibility
6:00 AM
Apr 19
77 °FScattered clouds.14 mph83%30.04 "HgN/A
9:00 PM
Apr 18
77 °FPassing clouds.15 mph79%30.04 "HgN/A
8:00 PM77 °FPassing clouds.16 mph83%30.04 "HgN/A
7:00 PM77 °FPassing clouds.15 mph79%30.01 "HgN/A
6:00 PM79 °FScattered clouds.16 mph79%30.01 "HgN/A
5:00 PM81 °FPartly sunny.16 mph70%30.01 "HgN/A
4:00 PM82 °FScattered clouds.21 mph66%30.01 "HgN/A
3:00 PM82 °FScattered clouds.17 mph70%30.01 "HgN/A
2:00 PM82 °FScattered clouds.16 mph70%30.01 "HgN/A
1:00 PM82 °FPassing clouds.20 mph70%30.04 "HgN/A
12:00 PM84 °FPassing clouds.21 mph66%30.04 "HgN/A
11:00 AM82 °FScattered clouds.18 mph66%30.07 "HgN/A
10:00 AM82 °FScattered showers. Scattered clouds.20 mph70%30.07 "HgN/A
9:00 AM82 °FScattered clouds.18 mph66%30.07 "HgN/A
8:00 AM81 °FScattered clouds.17 mph70%30.04 "HgN/A
7:00 AM77 °FPartly sunny.18 mph79%30.04 "HgN/A
6:00 AM75 °FScattered clouds.14 mph83%N/AN/A
Weather by CustomWeather, © 2014

See weather overview